| time (UTC) | temp C | wind direction | speed KPH | gust KPH | rain 1hr cm | rain 24hr cm | rain mn cm | humidity % | barometer mb |
| 20260504044536 | 4 | 117 | 9.7 | 33.8 | 0.05 | 1.75 | 0.05 | 94 | 975.0 |
| 20260504043035 | 4 | 141 | 16.1 | 43.5 | 0.03 | 1.73 | 0.03 | 94 | 976.0 |
| 20260504041535 | 4 | 109 | 19.3 | 51.5 | 0.03 | 1.73 | 0.03 | 94 | 976.4 |
| 20260504040041 | 4 | 153 | 24.1 | 46.7 | 0.00 | 1.70 | 0.00 | 94 | 977.0 |
| 20260504034531 | 4 | 136 | 17.7 | 40.2 | 0.00 | 1.70 | 0.00 | 93 | 978.4 |
| 20260504033038 | 4 | 136 | 19.3 | 35.4 | 0.00 | 1.70 | 0.00 | 93 | 979.2 |
| 20260504031543 | 4 | 142 | 19.3 | 37.0 | 0.00 | 1.70 | 0.00 | 92 | 979.7 |
| 20260504030036 | 5 | 141 | 19.3 | 38.6 | 0.00 | 1.70 | 0.00 | 91 | 980.3 |
| 20260504024534 | 5 | 164 | 24.1 | 40.2 | 0.00 | 1.70 | 1.70 | 90 | 981.1 |
| 20260504023032 | 5 | 129 | 22.5 | 53.1 | 0.03 | 1.70 | 1.70 | 90 | 981.6 |
| 20260504021538 | 5 | 176 | 17.7 | 43.5 | 0.03 | 1.70 | 1.70 | 91 | 982.2 |
| 20260504020041 | 6 | 165 | 24.1 | 43.5 | 0.05 | 1.70 | 1.70 | 94 | 982.6 |
| 20260504014536 | 6 | 135 | 17.7 | 32.2 | 0.08 | 1.70 | 1.70 | 96 | 983.2 |
| 20260504013037 | 5 | 127 | 12.9 | 22.5 | 0.10 | 1.68 | 1.68 | 96 | 984.3 |
| 20260504011535 | 5 | 90 | 14.5 | 35.4 | 0.13 | 1.68 | 1.68 | 96 | 984.9 |
| 20260504010034 | 5 | 78 | 17.7 | 30.6 | 0.15 | 1.65 | 1.65 | 96 | 985.2 |
| 20260504004545 | 5 | 77 | 14.5 | 33.8 | 0.20 | 1.63 | 1.63 | 96 | 986.5 |
| 20260504003043 | 4 | 66 | 19.3 | 43.5 | 0.25 | 1.57 | 1.57 | 96 | 986.9 |
| 20260504001541 | 3 | 74 | 17.7 | 30.6 | 0.38 | 1.52 | 1.52 | 96 | 988.1 |
| 20260504000054 | 3 | 72 | 14.5 | 33.8 | 0.48 | 1.47 | 1.47 | 96 | 988.8 |
| 20260503234549 | 3 | 69 | 19.3 | 32.2 | 0.58 | 1.42 | 1.42 | 96 | 989.4 |
| 20260503233038 | 3 | 66 | 12.9 | 27.4 | 0.51 | 1.30 | 1.30 | 96 | 990.1 |
| 20260503231536 | 3 | 50 | 11.3 | 30.6 | 0.41 | 1.14 | 1.14 | 96 | 991.3 |
| 20260503230036 | 3 | 34 | 14.5 | 30.6 | 0.38 | 1.02 | 1.02 | 96 | 992.4 |
| 20260503224533 | 3 | 40 | 14.5 | 25.7 | 0.23 | 0.81 | 0.81 | 96 | 993.0 |
| 20260503223039 | 3 | 72 | 16.1 | 29.0 | 0.28 | 0.79 | 0.79 | 96 | 994.2 |
| 20260503221546 | 3 | 74 | 11.3 | 25.7 | 0.33 | 0.71 | 0.71 | 96 | 995.0 |
| 20260503220039 | 3 | 53 | 8.0 | 22.5 | 0.38 | 0.64 | 0.64 | 96 | 995.5 |
| 20260503214536 | 3 | 78 | 11.3 | 20.9 | 0.46 | 0.58 | 0.58 | 96 | 995.9 |
| 20260503213035 | 2 | 67 | 12.9 | 29.0 | 0.36 | 0.48 | 0.48 | 96 | 996.3 |
| 20260503211535 | 2 | 61 | 11.3 | 27.4 | 0.25 | 0.36 | 0.36 | 95 | 995.7 |
| 20260503210032 | 2 | 86 | 12.9 | 27.4 | 0.13 | 0.23 | 0.23 | 95 | 997.3 |
| 20260503204534 | 2 | 57 | 14.5 | 27.4 | 0.03 | 0.13 | 0.13 | 95 | 998.3 |
| 20260503203044 | 2 | 66 | 9.7 | 25.7 | 0.03 | 0.13 | 0.13 | 94 | 998.9 |
| 20260503201539 | 2 | 70 | 14.5 | 30.6 | 0.03 | 0.10 | 0.10 | 94 | 999.8 |
| 20260503200036 | 2 | 73 | 12.9 | 27.4 | 0.03 | 0.10 | 0.10 | 94 | 1000.8 |
| 20260503194537 | 2 | 15 | 12.9 | 25.7 | 0.03 | 0.10 | 0.10 | 93 | 1001.2 |
| 20260503193032 | 2 | 50 | 9.7 | 27.4 | 0.10 | 0.10 | 0.10 | 93 | 1001.5 |
| 20260503191541 | 3 | 19 | 11.3 | 27.4 | 0.08 | 0.08 | 0.08 | 92 | 1002.7 |
| 20260503190041 | 3 | 55 | 9.7 | 20.9 | 0.08 | 0.08 | 0.08 | 92 | 1003.7 |
| 20260503184536 | 3 | 38 | 8.0 | 19.3 | 0.08 | 0.08 | 0.08 | 90 | 1004.3 |
| 20260503183035 | 4 | 67 | 6.4 | 16.1 | 0.00 | 0.00 | 0.00 | 88 | 1005.7 |
| 20260503181535 | 5 | 77 | 8.0 | 22.5 | 0.00 | 0.00 | 0.00 | 85 | 1005.7 |
| 20260503180033 | 5 | 34 | 9.7 | 20.9 | 0.00 | 0.00 | 0.00 | 84 | 1006.3 |
| 20260503174535 | 5 | 19 | 6.4 | 14.5 | 0.00 | 0.00 | 0.00 | 84 | 1007.3 |
| 20260503173050 | 5 | 19 | 6.4 | 16.1 | 0.00 | 0.00 | 0.00 | 83 | 1008.0 |
| 20260503171539 | 6 | 55 | 6.4 | 14.5 | 0.00 | 0.00 | 0.00 | 82 | 1008.4 |
| 20260503081535 | 0 | 0 | 0.0 | 0.0 | 0.00 | 0.03 | 0.00 | 96 | 1015.8 |
| 20260503071537 | 0 | 0 | 0.0 | 3.2 | 0.00 | 0.05 | 0.00 | 97 | 1015.9 |